STARLINK-3724, 52305

Orbit data source: Space-Track

STARLINK-3724, 52305 is a payload satellite owned by SpaceX/Seattle (US) in LEO that was launched on Thu, 21 Apr 2022 UTC via an FALCON 9 launch vehicle from the Air Force Eastern Test Range (AFETR). Payload-class satellites include a variety of spacecraft equipped with specific instruments for various scientific and technological missions. These include communications satellites like Starlink; space stations such as the ISS; scientific satellites like the Hubble; Earth observation satellites from companies like Planet Labs, Umbra, and HawkEye 360; GPS; miniature CubeSats for education and research; and military/defense satellites.

Loading next visibility...
Identifier
52305, 2022-041AW
Orbit
LEO
Country
Flag of USUS
Related business
Manufacturer
SpaceX/Seattle
Mission
Operational Commercial Communications
Bus & Motor
STARLINK, Unknown motor
Mass
297 kg wet, ~275 kg dry
Launch date (UTC)
2022-04-21 (4 years ago)
Launch vehicle
FALCON 9
Launch site
Air Force Eastern Test Range (AFETR)
Object type
Payload
Rocket body
Debris
Shape & HBR
Box + 1 Pan, 10.1 m
Radar Cross Section
11.087 m², Large (>1 m²)

Expand to show TLE details & history
Last TLE update: 13 hours ago

TLE from 13 hours ago
0 STARLINK-3724
1 52305U 22041AW  26236.79744360  .00001752  00000-0  64561-4 0  9994
2 52305  53.1603  56.5113 0001116  92.5238 267.5892 15.33555843239997
Epoch: 2026-08-24T19:08Z
TLE epoch observation values (Epoch: 2026-08-24T19:08:19.127Z)
Latitude
Longitude
156.35762°
Altitude
466.147 km
Speed
7.634 km/s
True Right ascension
03h 46m 02s
True Declination
0° 00' 00"
Sunlit
Object was in daylight at epoch
Visualization orbit readout
Latitude
Unknown
Longitude
Unknown
Altitude
Unknown
Speed
Unknown
Apparent Right ascension
Unknown
Apparent Declination
Unknown
Sunlit
N/A
Visualization observer readout
Local Sidereal Time
23:03:21
Azimuth
Unknown
Elevation
Unknown
Doppler factor
Unknown
Orbital elements
Apogee altitude
466.234 km
Perigee altitude
464.706 km
Semi-major axis
6,843.607 km
Eccentricity
0.00011
Inclination
53.1603°
RAAN
56.5113°
Arg. of periapsis
92.5238°
True anomaly
267.57642°
Mean anomaly
267.5892°
Eccentric anomaly
267.58281°
Mean motion
3.83368 °/min
Orbital period
93.9 mins
BSTAR
0.000064561
Loading maneuver chart data...
Computing Atmospheric mass density...

Documentation

Showing up to 5 results
|